Change the Weather History Date:

Thursday, September 5, 2013

  Actual Average Record
Temperature  
Mean Temperature 60 °F -  
Max Temperature 66 °F 56 °F - ()
Min Temperature 55 °F 42 °F - ()
Degree Days  
Heating Degree Days 4    
Growing Degree Days 10 (Base 50)    
Moisture  
Dew Point 54 °F    
Average Humidity 83    
Maximum Humidity 94    
Minimum Humidity 51    
Precipitation  
Precipitation 0.01 in 0.13 in - ()
Sea Level Pressure  
Sea Level Pressure 30.11 in    
Wind  
Wind Speed 7 mph ()    
Max Wind Speed 15 mph    
Max Gust Speed -    
Visibility 6.3 miles    
Events Rain    
T = Trace of Precipitation, MM = Missing Value Source: Averaged Metar Reports

Daily Weather History Graph

Daily Weather History Graph

Search for Another Location

Airport or City:

Trip Planner

Search our weather history database for the weather conditions in past years. The results will help you decide how hot, cold, wet, or windy it might be!

Date:

Astronomy

Sep. 05, 2013 Rise Set
Actual Time 6:19 AM CEST 8:07 PM CEST
Civil Twilight 5:35 AM CEST 8:51 PM CEST
Nautical Twilight 4:38 AM CEST 9:47 PM CEST
Astronomical Twilight 3:28 AM CEST 10:56 PM CEST
Moon 6:26 AM CEST (9/5) 7:29 PM CEST (9/5)
Length of Visible Light 15h 16m
Length of Day
13h 47m
Waning Crescent, 0% of the Moon is Illuminated
Sep 5
Waning Crescent
Sep 5
New
Sep 12
First Quarter
Sep 19
Full
Sep 27
Last Quarter

Hourly Weather History & Observations

Time (CEST) Temp. Dew Point Humidity Pressure Visibility Wind Dir Wind Speed Gust Speed Precip Events Conditions
12:20 AM 55.4 °F 51.8 °F 88% 30.15 in 6.2 mi SSW 6.9 mph - N/A   Overcast
12:50 AM 55.4 °F 51.8 °F 88% 30.15 in 6.2 mi South 4.6 mph - N/A   Overcast
1:20 AM 57.2 °F 53.6 °F 88% 30.15 in 6.2 mi South 4.6 mph - N/A   Overcast
1:50 AM 57.2 °F 53.6 °F 88% 30.15 in 6.2 mi SSE 4.6 mph - N/A   Overcast
2:00 AM 56 °F 53 °F 86%  in 34 mi SE 4.5 mph - -   Partly Cloudy
2:20 AM 57.2 °F 53.6 °F 88% 30.15 in 6.2 mi SE 4.6 mph - N/A   Overcast
2:50 AM 57.2 °F 53.6 °F 88% 30.15 in 6.2 mi SE 4.6 mph - N/A   Overcast
3:20 AM 57.2 °F 53.6 °F 88% 30.15 in 6.2 mi Variable 2.3 mph - N/A   Overcast
3:50 AM 57.2 °F 55.4 °F 94% 30.12 in 6.2 mi South 5.8 mph - N/A   Overcast
4:20 AM 57.2 °F 55.4 °F 94% 30.12 in 6.2 mi SSE 5.8 mph - N/A   Overcast
4:50 AM 57.2 °F 55.4 °F 94% 30.12 in 6.2 mi South 6.9 mph - N/A   Overcast
5:20 AM 57.2 °F 55.4 °F 94% 30.12 in 6.2 mi South 5.8 mph - N/A   Overcast
5:50 AM 57.2 °F 55.4 °F 94% 30.12 in 6.2 mi SSE 6.9 mph - N/A   Overcast
6:20 AM 57.2 °F 55.4 °F 94% 30.12 in 6.2 mi SSE 4.6 mph - N/A   Overcast
6:50 AM 57.2 °F 53.6 °F 88% 30.12 in 6.2 mi SE 4.6 mph - N/A   Overcast
7:20 AM 57.2 °F 53.6 °F 88% 30.12 in 6.2 mi SE 4.6 mph - N/A   Mostly Cloudy
7:50 AM 57.2 °F 53.6 °F 88% 30.12 in 6.2 mi SE 5.8 mph - N/A   Mostly Cloudy
8:00 AM 58 °F 55 °F 86%  in 19 mi SE 2.2 mph - -   Partly Cloudy
8:20 AM 59.0 °F 55.4 °F 88% 30.12 in 6.2 mi SSE 6.9 mph - N/A   Mostly Cloudy
8:50 AM 59.0 °F 55.4 °F 88% 30.12 in 6.2 mi South 8.1 mph - N/A   Mostly Cloudy
9:20 AM 59.0 °F 55.4 °F 88% 30.12 in 6.2 mi South 9.2 mph - N/A   Mostly Cloudy
9:50 AM 62.6 °F 55.4 °F 77% 30.12 in 6.2 mi South 11.5 mph - N/A   Mostly Cloudy
10:20 AM 60.8 °F 53.6 °F 77% 30.12 in 6.2 mi South 12.7 mph - N/A   Scattered Clouds
10:50 AM 64.4 °F 53.6 °F 68% 30.12 in 6.2 mi South 12.7 mph - N/A   Scattered Clouds
11:20 AM 64.4 °F 53.6 °F 68% 30.12 in 6.2 mi SSW 10.4 mph - N/A   Scattered Clouds
11:50 AM 64.4 °F 53.6 °F 68% 30.12 in 6.2 mi SSW 13.8 mph - N/A   Partly Cloudy
12:20 PM 66.2 °F 51.8 °F 60% 30.12 in 6.2 mi SSW 15.0 mph - N/A   Partly Cloudy
12:50 PM 66.2 °F 51.8 °F 60% 30.12 in 6.2 mi SSW 15.0 mph - N/A   Scattered Clouds
1:20 PM 64.4 °F 51.8 °F 64% 30.12 in 6.2 mi SSW 13.8 mph - N/A   Mostly Cloudy
1:50 PM 64.4 °F 51.8 °F 64% 30.12 in 6.2 mi SW 9.2 mph - N/A   Mostly Cloudy
2:00 PM 65 °F 51 °F 51%  in 44 mi SSW 11.2 mph - -   Partly Cloudy
2:20 PM 64.4 °F 51.8 °F 64% 30.12 in 6.2 mi SSW 10.4 mph - N/A   Mostly Cloudy
2:50 PM 64.4 °F 53.6 °F 68% 30.12 in 6.2 mi South 13.8 mph - N/A   Mostly Cloudy
3:20 PM 62.6 °F 53.6 °F 72% 30.12 in 6.2 mi South 13.8 mph - N/A   Mostly Cloudy
3:50 PM 60.8 °F 55.4 °F 82% 30.09 in 6.2 mi South 13.8 mph - N/A   Mostly Cloudy
4:20 PM 60.8 °F 53.6 °F 77% 30.09 in 6.2 mi South 12.7 mph - N/A   Mostly Cloudy
4:50 PM 60.8 °F 55.4 °F 82% 30.09 in 6.2 mi SSW 11.5 mph - N/A   Mostly Cloudy
5:20 PM 60.8 °F 55.4 °F 82% 30.09 in 6.2 mi SSW 9.2 mph - N/A   Mostly Cloudy
5:50 PM 59.0 °F 55.4 °F 88% 30.09 in 6.2 mi SSW 8.1 mph - N/A   Mostly Cloudy
6:20 PM 60.8 °F 55.4 °F 82% 30.09 in 6.2 mi SSW 4.6 mph - N/A   Mostly Cloudy
6:50 PM 60.8 °F 55.4 °F 82% 30.09 in 6.2 mi South 6.9 mph - N/A   Mostly Cloudy
7:20 PM 60.8 °F 53.6 °F 77% 30.09 in 6.2 mi South 12.7 mph - N/A   Mostly Cloudy
7:50 PM 57.2 °F 55.4 °F 94% 30.09 in 3.1 mi South 10.4 mph - N/A   Light Drizzle
8:00 PM 58 °F 56 °F 89%  in 3 mi South 6.7 mph - - Rain Light Drizzle
8:20 PM 57.2 °F 55.4 °F 94% 30.09 in 4.3 mi South 10.4 mph - N/A Rain Light Rain Showers
8:50 PM 57.2 °F 55.4 °F 94% 30.09 in 6.2 mi SSW 8.1 mph - N/A   Mostly Cloudy
9:20 PM 57.2 °F 55.4 °F 94% 30.09 in 6.2 mi South 8.1 mph - N/A   Mostly Cloudy
9:50 PM 57.2 °F 55.4 °F 94% 30.09 in 6.2 mi South 8.1 mph - N/A   Overcast
10:20 PM 57.2 °F 55.4 °F 94% 30.09 in 6.2 mi South 9.2 mph - N/A   Mostly Cloudy
10:50 PM 57.2 °F 55.4 °F 94% 30.09 in 6.2 mi South 6.9 mph - N/A   Mostly Cloudy
11:20 PM 57.2 °F 55.4 °F 94% 30.06 in 6.2 mi South 6.9 mph - N/A   Mostly Cloudy
11:50 PM 57.2 °F 55.4 °F 94% 30.06 in 6.2 mi South 6.9 mph - N/A Rain Light Rain